星链-11551 (STARLINK-11551)

导读

STARLINK-11551是美国SpaceX公司星链(Starlink)星座中的卫星,于2025年1月27日发射入轨,归属于美国。星链计划旨在构建全球卫星互联网星座,为全球偏远地区、海洋空域等提供高速低延迟的宽带互联网接入服务,该卫星承担着扩充星座网络覆盖、提升服务容量的作用。

Basic Information
目录编号:
62840
目录名称:
STARLINK-11551
国际标识:
2025-019M
轨道中心:
EARTH
卫星名称:
星链-11551
卫星全名:
星链-11551 (STARLINK-11551)
卫星状态:
在轨 (已飞行586 天)
发射日期:
2025-01-27 UTC
国别 :
美国 (US)
星等 :
--
Orbit Information
数据来源 国际轨道数据
星历时间: 2026-09-03T21:05:29+0800
1天前
查看轨道信息
半长轴: 6734.584km
偏心率: 0.00015
轨道倾角: 43.000°
近地点辐角 285.362°
升交点赤经 313.852°
平近点角 74.708°
近地点: 355.436km
远地点: 357.458km
周期: 91.670分钟
每日圈数: 15.708571
Detailed Information
固有亮度:
5
最大亮度:
2.5
卫星平台:
Starlink V1.0
覆盖范围:
全球
运营商:
太空探索技术公司
运营商所在国:
美国
制造商(研发单位):
太空探索技术公司
制造商所在国:
美国
使用方式:
暂无
Satellite Introduction
Starlink 计划是 SpaceX 推出的全球卫星互联网项目,通过发射低轨道卫星,为全球尤其是偏远地区提供高速、低延迟的互联网服务。自 2019 年起,Starlink 已部署数千颗卫星,旨在缩小全球数字鸿沟,推动互联网普及。该项目还为军事、航空等行业提供通信支持,带来广泛经济效益。
2D Orbit Map
3D Orbit Map
Orbit Altitude Analysis Chart
Orbit Inclination Analysis Chart
Orbit Comprehensive Analysis Chart
View Comprehensive Chart
Conjunction Data List
Event ID Objects TCA Miss Dist (km) Collision Risk Probability Collision Risk Index (CRI) Action
CDM_260903-001206-284006-352321
OBJECT E (63523)
2026-09-03T
00:12:03+0000
2.971 km
极远距离
1.084462E-6 低风险 0.36